257  
NZUS93 KARX 210510  
HRRWXR  
 
CURRENT HOURLY OBSERVATIONS ACROSS  
MUCH OF THE UPPER MISSISSIPPI VALLEY  
NATIONAL WEATHER SERVICE LA CROSSE WI  
1200 AM CDT SAT SEP 21 2019  
 
   
..SOUTHEAST MINNESOTA
 
 
 
CITY SKY/WX TMP DP RH WIND PRES REMARKS  
ROCHESTER FAIR 71 66 84 SE10 29.97F  
ROCHESTER/MAYO FAIR 73 67 84 SE10 29.97F  
WINONA FAIR 72 68 88 SE7 29.97F  
AUSTIN FAIR 75 63 64 S6 29.95F  
ALBERT LEA FAIR 73 70 88 S10G16 29.94F  
DODGE CENTER FAIR 70 64 83 CALM 29.95F  
PRESTON FAIR 70 65 84 S9G16 29.99F  
OWATONNA FAIR 73 66 78 SE13G21 29.93F  
FARIBAULT NOT AVBL  

 
   
..ELSEWHERE IN MINNESOTA
 
 
 
CITY SKY/WX TMP DP RH WIND PRES REMARKS  
MINNEAPOLIS FAIR 75 67 76 SE10 29.91F  
INTNL FALLS CLOUDY 71 65 81 SE13G25 29.83F  
DULUTH FOG 59 56 89 SE9 29.96F VSB 1/8  
RED WING FAIR 75 64 69 SE9 29.93F  
REDWOOD FALLS CLEAR 73 67 81 SE14 29.84F  
MANKATO FAIR 75 70 84 S14G21 29.90F  
WORTHINGTON PTCLDY 73 67 81 S12G22 29.87F  
FAIRMONT CLEAR 73 69 87 S15 29.89F  

 
   
..SOUTHWEST WISCONSIN
 
 
 
CITY SKY/WX TMP DP RH WIND PRES REMARKS  
LA CROSSE NOT AVBL  
PRAIRIE DU CHI FAIR 72 66 82 E3 30.00F  
BOSCOBEL FAIR 75 67 76 VRB3 30.02F  
LONE ROCK FAIR 72 68 87 E6 30.03F  
PLATTEVILLE FAIR 72 71 99 SE8 30.05F  
FORT MC COY FAIR 72 65 78 S9 30.02F  
CAMP DOUGLAS FAIR 68 68 100 CALM 30.03F FOG  
MAUSTON-NEW LI FOG 67 67 100 CALM 30.03F VSB 3/4  
VIROQUA FAIR 69 69 100 SE7 30.05S  
WIS DELLS FAIR 69 67 92 S5 30.05F  

 
   
..ELSEWHERE IN WISCONSIN
 
 
 
CITY SKY/WX TMP DP RH WIND PRES REMARKS  
MILWAUKEE MOCLDY 70 65 84 SE5 30.09F HAZE  
MADISON FAIR 73 68 84 S7 30.06F  
GREEN BAY FAIR 65 62 90 E5 30.09F FOG  
EAU CLAIRE FAIR 74 68 81 S8 29.97F  
BLACK RVR FLS FAIR 69 69 100 CALM 30.00F  
MEDFORD FAIR 67 66 97 SE7 30.05S FOG  
WAUSAU MOCLDY 68 67 96 SE6 30.05F  
WIS RAPIDS FAIR 70 68 93 SE5 30.05F  
MARSHFIELD FAIR 69 67 93 SE6 30.04F FOG  
RICE LAKE FAIR 71 58 63 SE7 29.98F  

 
   
..NORTHEAST IOWA
 
 
 
CITY SKY/WX TMP DP RH WIND PRES REMARKS  
WATERLOO FAIR 77 67 71 S15 29.97F  
DUBUQUE FAIR 71 68 90 S9 30.04F  
DECORAH FAIR 70 68 94 SE8 29.99F  
MASON CITY CLEAR 73 67 81 SE9 29.96F  
CHARLES CITY FAIR 73 70 88 SE13G20 29.97F  
OELWEIN CLEAR 73 72 94 S14 30.00F  

 
   
..ELSEWHERE IN IOWA
 
 
 
CITY SKY/WX TMP DP RH WIND PRES REMARKS  
DES MOINES MOCLDY 75 66 73 S10 29.95S  
IOWA CITY FAIR 76 69 79 SE7 30.02F  
FORT DODGE CLOUDY 75 67 76 S12G20 29.94S  
MARSHALLTOWN CLOUDY 73 69 87 SE9 29.96F  
CEDAR RAPIDS FAIR 75 69 81 S9 30.00F  

 
   
..NORTHERN ILLINOIS
 
 
 
CITY SKY/WX TMP DP RH WIND PRES REMARKS  
CHICAGO-OHARE FAIR 74 67 78 S5 30.10F  
CHICAGO-MIDWAY FAIR 78 67 68 S6 30.10F  
MOLINE FAIR 77 69 76 S7 30.03F  
ROCKFORD FAIR 72 68 87 S7 30.09F  
PEORIA FAIR 74 68 81 S9 30.10S  

 
 
NOTE: "FAIR" INDICATES FEW OR NO CLOUDS BELOW 12,000 FEET WITH NO  
SIGNIFICANT WEATHER AND/OR OBSTRUCTIONS TO VISIBILITY. WIND  
SPEEDS ARE IN MILES-PER-HOUR.  
 
 
CLICK HERE TO GO TO PREVIOUS BULLETINS.

The Nexlab WI Page
The Nexlab IA Page
The Nexlab MN Page Main Text Page